Location: S�tio Afonso Gruber
(26.1760°S, 49.5250°W)
Time: 04:03:25
(UTC+00:00)

CZ-4 R/B - Visible Passes

Search period start: 23 September 2020 00:00
Search period end: 03 October 2020 00:00
Orbit: 531 x 599 km, 97.7° (Epoch: 22 September)

Date Brightness Start Highest point End Pass type
(mag) Time Alt. Az. Time Alt. Az. Time Alt. Az.
23 Sep 2.9 21:42:23 10° SE 21:45:12 17° E 21:48:00 10° NE visible
23 Sep 3.7 23:16:38 10° SSW 23:20:05 25° WSW 23:23:32 10° NW visible
24 Sep 2.9 21:42:42 10° SE 21:45:33 18° E 21:48:23 10° NE visible
24 Sep 3.7 23:16:59 10° SSW 23:20:26 25° WSW 23:23:52 10° NW visible
25 Sep 2.9 21:43:01 10° SE 21:45:54 18° E 21:48:46 10° NE visible
25 Sep 3.7 23:17:20 10° SSW 23:20:47 24° WSW 23:24:12 10° NW visible
26 Sep 2.9 21:43:20 10° SE 21:46:15 18° E 21:49:09 10° NE visible
26 Sep 3.8 23:17:42 10° SSW 23:21:07 24° WSW 23:24:33 10° NW visible
27 Sep 2.9 21:43:40 10° SE 21:46:37 18° E 21:49:31 10° NE visible
27 Sep 3.8 23:18:04 10° SSW 23:21:28 24° WSW 23:24:53 10° NW visible
28 Sep 2.9 21:44:00 10° SE 21:46:57 18° E 21:49:54 10° NE visible
28 Sep 3.8 23:18:25 10° SSW 23:21:50 24° WSW 23:25:13 10° NW visible
29 Sep 2.9 21:44:20 10° SE 21:47:19 19° E 21:50:17 10° NE visible
29 Sep 3.8 23:18:46 10° SSW 23:22:11 24° WSW 23:25:34 10° NW visible
30 Sep 2.8 21:44:40 10° SE 21:47:40 19° E 21:50:40 10° NE visible
30 Sep 3.8 23:19:08 10° SSW 23:22:32 24° WSW 23:25:55 10° NW visible
01 Oct 2.8 21:45:00 10° SE 21:48:02 19° E 21:51:02 10° NE visible
01 Oct 3.8 23:19:30 10° SSW 23:22:53 23° WSW 23:26:16 10° NW visible
02 Oct 2.8 21:45:20 10° SE 21:48:23 19° E 21:51:25 10° NE visible
02 Oct 3.9 23:19:52 10° SSW 23:23:15 23° WSW 23:26:36 10° NW visible
